International Virtual Aviation Organisation

Russian Federation and Kazakhstan MCD

 

Карточка аэропорта UAII

Внимание!
Информация на этой странице в стадии наполнения.
Если вы не увидели какой-то информации, или заметили неточность - пожалуйста сообщите нам!
Спасибо!
Команда RU-STAFF
Название аэропортаШымкент
Название аэропорта (англ.)Shymkent
Превышение1389 ft. (423.4 m.)
Координаты42°21.348', 69°28.734'
Высота перехода5000
Эшелон переходаFL70
Коды ответчика3430-3437, 3530-3537
Зона ОрВДШымкент РПИ (UAII)
Данные METARUAII 270330Z VRB01MPS CAVOK 03/M02 Q1021 R28/0///70 NOSIG RMK QFE728/0971
Проноз погоды (TAF)UAII 262308Z 2700/2724 12003G08MPS 6000 SCT050CB BKN100 TX11/2709Z TNM02/2702Z TEMPO 2700/2706 3100 BR TEMPO 2712/2724 24009G14MPS 2000 SHRASN BKN011 OVC020CB
NOTAMshow/hide NOTAM
AWOS   TABLE

Информация о ВПП

ВПП Длина ВПП (м.) Покрытие Курс ВПП Частота ILS
103300Железобетон106111.7
283300Железобетон286110.3

Диспетчерские позиции




Спутниковое изображение